OneWeb SL0230

operational
NORAD ID: 48769 Int'l Des: 2021-045 Owner: ONEWEBN Country: UK Constellation: oneweb
LEOCIRCULARPOLARONEWEB_TYPE

关于 OneWeb SL0230

正在加载描述...

实时位置

正在加载3D地球...

即将过境

高度历史

Altitude vs Time

uPlot chart will show altitude changes over time

两行轨道根数

1 48769U 21045C 25351.61589869 .00000180 00000-0 44476-3 0 9991
2 48769 87.8996 295.4436 0001901 81.5737 278.5608 13.15550269220791
Epoch: Dec 17, 2025 • Age: 6 hours

当前状态

高度 1214.1 km
速度 7.25 km/s
星下点 85.30°N, 75.36°W
发射日期 May 28, 2021
运行时间 4.5 years
类型 internet

技术详情

分类 Payload
质量 148.00 kg
干质量 140.00 kg
总质量 148.00 kg
长度 1.30 m
直径 1.00 m
跨度 5.00 m
形状 Trapezoid+2 pan
制造商 ONEWUS
平台类型 ARROW
阶段状态 In Orbit
所有者/国家 ONEWEBN/UK

大型星座

Loading constellations...